,,Stat1,,Stat2,,Stat3,,Stat4,,Wind1,,Wind1,
time,status,PR1M_SUM,status,RH1M_AVG,status,SR1M_AVG,status,TA1M_AVG,status,W1dAve1m,status,W1sAve1m,
1999-08-14, 00:00:00,VALID,0,VALID,94.9431,VALID,0.0169808,VALID,18.011,VALID,122,VALID,0.594131,
1999-08-14, 00:01:00,VALID,0,VALID,96.291,VALID,0,VALID,17.9946,VALID,130,VALID,0.814103,
1999-08-14, 00:02:00,VALID,0,VALID,96.3825,VALID,0,VALID,17.9628,VALID,151,VALID,0.604384,
1999-08-14, 00:03:00,VALID,0,VALID,96.7971,VALID,0.0339617,VALID,17.9466,VALID,157,VALID,1.03695,
1999-08-14, 00:04:00,VALID,0,VALID,97.3604,VALID,0.0169808,VALID,17.9625,VALID,170,VALID,0.978966,
1999-08-14, 00:05:00,VALID,0,VALID,97.5956,VALID,0.0169808,VALID,18.0078,VALID,173,VALID,0.826891,
1999-08-14, 00:06:00,VALID,0,VALID,97.5855,VALID,0,VALID,18.0172,VALID,200,VALID,0.708333,
1999-08-14, 00:07:00,VALID,0,VALID,97.5359,VALID,0.0509425,VALID,18.0301,VALID,205,VALID,0.151727,
1999-08-14, 00:08:00,VALID,0,VALID,97.2727,VALID,0,VALID,18.0207,VALID,192,VALID,0,
1999-08-14, 00:09:00,VALID,0,VALID,96.3431,VALID,0,VALID,17.9302,VALID,150,VALID,0.0514482,
1999-08-14, 00:10:00,VALID,0,VALID,96.4347,VALID,0.0169808,VALID,17.9374,VALID,62,VALID,0.498698,
1999-08-14, 00:11:00,VALID,0,VALID,97.1188,VALID,0.0169808,VALID,17.9854,VALID,48,VALID,0.87168,
1999-08-14, 00:12:00,VALID,0,VALID,97.6872,VALID,0.0339617,VALID,18.0661,VALID,38,VALID,0.497889,
1999-08-14, 00:13:00,VALID,0,VALID,97.808,VALID,0,VALID,18.1206,VALID,25,VALID,0.0677083,
1999-08-14, 00:14:00,VALID,0,VALID,97.6808,VALID,0,VALID,18.1404,VALID,5,VALID,0,
1999-08-14, 00:15:00,VALID,0,VALID,97.5461,VALID,0.0679233,VALID,18.1367,VALID,284,VALID,0,
1999-08-14, 00:16:00,VALID,0,VALID,96.4995,VALID,0.0509425,VALID,18.0562,VALID,266,VALID,0,
1999-08-14, 00:17:00,VALID,0,VALID,95.3818,VALID,0,VALID,17.9531,VALID,248,VALID,0,
1999-08-14, 00:18:00,VALID,0,VALID,95.0143,VALID,0.0339617,VALID,17.8721,VALID,219,VALID,0,
1999-08-14, 00:19:00,VALID,0,VALID,95.4288,VALID,0,VALID,17.8172,VALID,219,VALID,0,
1999-08-14, 00:20:00,VALID,0,VALID,96.2261,VALID,0,VALID,17.8075,VALID,211,VALID,0,
1999-08-14, 00:21:00,VALID,0,VALID,96.5784,VALID,0,VALID,17.7853,VALID,159,VALID,0,
1999-08-14, 00:22:00,VALID,0,VALID,97.4342,VALID,-0.0169808,VALID,17.8266,VALID,155,VALID,0.353824,
1999-08-14, 00:23:01,VALID,0,VALID,97.6402,VALID,0,VALID,17.8557,VALID,137,VALID,0.912829,
1999-08-14, 00:24:00,VALID,0,VALID,97.5181,VALID,0.0169808,VALID,17.8462,VALID,132,VALID,0.927576,
1999-08-14, 00:25:00,VALID,0,VALID,97.56,VALID,-0.0169808,VALID,17.8594,VALID,137,VALID,0.90579,
1999-08-14, 00:26:00,VALID,0,VALID,97.6058,VALID,0.0169808,VALID,17.8721,VALID,149,VALID,0.838867,
1999-08-14, 00:27:00,VALID,0,VALID,97.766,VALID,0,VALID,17.8785,VALID,169,VALID,0.759663,
1999-08-14, 00:28:00,VALID,0,VALID,97.9161,VALID,0,VALID,17.9175,VALID,179,VALID,0.637035,
1999-08-14, 00:29:00,VALID,0,VALID,97.733,VALID,-0.0169808,VALID,17.9016,VALID,199,VALID,0.641992,
1999-08-14, 00:30:00,VALID,0,VALID,97.8601,VALID,-0.0509425,VALID,17.9078,VALID,197,VALID,0.728516,
1999-08-14, 00:31:00,VALID,0,VALID,97.9492,VALID,0,VALID,17.9501,VALID,193,VALID,0.788061,
1999-08-14, 00:32:00,VALID,0,VALID,97.7915,VALID,0,VALID,17.9567,VALID,204,VALID,0.675465,
1999-08-14, 00:33:01,VALID,0,VALID,97.8678,VALID,-0.0169808,VALID,17.9766,VALID,205,VALID,0.928125,
1999-08-14, 00:34:01,VALID,0,VALID,97.8233,VALID,0,VALID,17.9888,VALID,199,VALID,1.14909,
1999-08-14, 00:35:00,VALID,0,VALID,97.7393,VALID,0.0169808,VALID,17.9886,VALID,201,VALID,1.23335,
1999-08-14, 00:36:00,VALID,0,VALID,97.7838,VALID,0,VALID,18.0112,VALID,199,VALID,1.40737,
1999-08-14, 00:37:00,VALID,0,VALID,97.9148,VALID,-0.0339617,VALID,18.0276,VALID,194,VALID,1.66037,
1999-08-14, 00:38:00,VALID,0,VALID,97.8881,VALID,0,VALID,18.0142,VALID,202,VALID,1.1022,
1999-08-14, 00:39:00,VALID,0,VALID,97.8716,VALID,0.0169808,VALID,18.0082,VALID,198,VALID,1.29071,
1999-08-14, 00:40:00,VALID,0,VALID,97.8818,VALID,0,VALID,17.9849,VALID,207,VALID,1.1596,
1999-08-14, 00:41:00,VALID,0,VALID,98.0293,VALID,0,VALID,18.0082,VALID,194,VALID,1.12793,
1999-08-14, 00:42:00,VALID,0,VALID,98.1577,VALID,0,VALID,18.0274,VALID,184,VALID,1.53674,
1999-08-14, 00:43:00,VALID,0,VALID,98.2048,VALID,0.0169808,VALID,18.0401,VALID,186,VALID,1.74409,
1999-08-14, 00:44:00,VALID,0,VALID,98.1819,VALID,0,VALID,18.0564,VALID,190,VALID,1.44611,
1999-08-14, 00:45:01,VALID,0,VALID,98.1424,VALID,0,VALID,18.0726,VALID,182,VALID,1.40777,
1999-08-14, 00:46:00,VALID,0,VALID,98.0979,VALID,0,VALID,18.0855,VALID,177,VALID,1.22356,
1999-08-14, 00:47:00,VALID,0,VALID,98.0496,VALID,0,VALID,18.0851,VALID,188,VALID,1.52428,
1999-08-14, 00:48:00,VALID,0,VALID,97.9949,VALID,0,VALID,18.0855,VALID,181,VALID,1.44531,
1999-08-14, 00:49:00,VALID,0,VALID,97.9682,VALID,0,VALID,18.0917,VALID,172,VALID,0.979768,
1999-08-14, 00:50:00,VALID,0,VALID,97.9746,VALID,0,VALID,18.0885,VALID,177,VALID,1.05592,
1999-08-14, 00:51:00,VALID,0,VALID,98,VALID,0,VALID,18.1079,VALID,187,VALID,1.19661,
1999-08-14, 00:52:00,VALID,0,VALID,97.9644,VALID,0,VALID,18.1275,VALID,175,VALID,0.972245,
1999-08-14, 00:53:00,VALID,0,VALID,97.8703,VALID,0,VALID,18.1404,VALID,197,VALID,0.523655,
1999-08-14, 00:54:00,VALID,0,VALID,97.85,VALID,0,VALID,18.1566,VALID,160,VALID,0.286585,
1999-08-14, 00:55:00,VALID,0,VALID,97.8195,VALID,0.0169808,VALID,18.1817,VALID,170,VALID,0.12934,
1999-08-14, 00:56:01,VALID,0,VALID,97.7457,VALID,0,VALID,18.211,VALID,168,VALID,0.0246094,
1999-08-14, 00:57:00,VALID,0,VALID,97.6414,VALID,0,VALID,18.2237,VALID,174,VALID,0,
1999-08-14, 00:58:00,VALID,0,VALID,97.5461,VALID,0,VALID,18.2468,VALID,166,VALID,0.309028,
1999-08-14, 00:59:00,VALID,0,VALID,97.4977,VALID,0,VALID,18.25,VALID,100,VALID,0.644727,
1999-08-14, 01:00:00,VALID,0,VALID,97.4596,VALID,-0.0169808,VALID,18.26,VALID,97,VALID,0.537598,
1999-08-14, 01:01:00,VALID,0,VALID,97.3947,VALID,0.0169808,VALID,18.2494,VALID,97,VALID,0.619391,
1999-08-14, 01:02:00,VALID,0,VALID,97.3184,VALID,0.0169808,VALID,18.25,VALID,98,VALID,0.451275,
1999-08-14, 01:03:00,VALID,0,VALID,97.2332,VALID,0,VALID,18.2332,VALID,110,VALID,0.300576,
1999-08-14, 01:04:00,VALID,0,VALID,97.1824,VALID,0,VALID,18.2468,VALID,122,VALID,0.259713,
1999-08-14, 01:05:00,VALID,0,VALID,97.1302,VALID,0,VALID,18.2374,VALID,124,VALID,0.236275,
1999-08-14, 01:06:00,VALID,0,VALID,97.0921,VALID,-0.0169808,VALID,18.2115,VALID,120,VALID,0.206676,
1999-08-14, 01:07:01,VALID,0,VALID,97.1506,VALID,0,VALID,18.2078,VALID,116,VALID,0.141653,
1999-08-14, 01:08:00,VALID,0,VALID,97.1964,VALID,-0.0169808,VALID,18.2078,VALID,116,VALID,0,
1999-08-14, 01:09:00,VALID,0,VALID,97.204,VALID,0,VALID,18.2083,VALID,116,VALID,0.236275,
1999-08-14, 01:10:00,VALID,0,VALID,97.176,VALID,0.0509425,VALID,18.2048,VALID,125,VALID,0.0921415,
1999-08-14, 01:11:00,VALID,0,VALID,97.0845,VALID,0.0169808,VALID,18.1949,VALID,138,VALID,0,
1999-08-14, 01:12:00,VALID,0,VALID,97.1379,VALID,0,VALID,18.1951,VALID,138,VALID,0,
1999-08-14, 01:13:00,VALID,0,VALID,97.1519,VALID,0,VALID,18.185,VALID,128,VALID,0,
1999-08-14, 01:14:00,VALID,0,VALID,96.9586,VALID,-0.0169808,VALID,18.1594,VALID,117,VALID,0,
1999-08-14, 01:15:00,VALID,0,VALID,96.9153,VALID,0.0169808,VALID,18.1268,VALID,114,VALID,0.538194,
1999-08-14, 01:16:00,VALID,0,VALID,97.0984,VALID,0,VALID,18.104,VALID,123,VALID,0.560296,
1999-08-14, 01:17:00,VALID,0,VALID,97.2803,VALID,0.0169808,VALID,18.1111,VALID,132,VALID,0.36402,
1999-08-14, 01:18:01,VALID,0,VALID,97.4011,VALID,0,VALID,18.1174,VALID,145,VALID,0.249609,
1999-08-14, 01:19:00,VALID,0,VALID,97.424,VALID,-0.0339617,VALID,18.101,VALID,177,VALID,0.0794271,
1999-08-14, 01:20:00,VALID,0,VALID,97.5524,VALID,-0.0679233,VALID,18.1123,VALID,179,VALID,0,
1999-08-14, 01:21:00,VALID,0,VALID,97.644,VALID,-0.101885,VALID,18.1256,VALID,185,VALID,0.329018,
1999-08-14, 01:22:00,VALID,0,VALID,97.7165,VALID,-0.101885,VALID,18.1416,VALID,193,VALID,0.517578,
1999-08-14, 01:23:00,VALID,0,VALID,97.6567,VALID,-0.0679233,VALID,18.1545,VALID,196,VALID,0.626267,
1999-08-14, 01:24:00,VALID,0,VALID,97.6173,VALID,-0.0849042,VALID,18.1739,VALID,196,VALID,0.772615,
1999-08-14, 01:25:00,VALID,0,VALID,97.5028,VALID,-0.0339617,VALID,18.1833,VALID,195,VALID,0.640848,
1999-08-14, 01:26:00,VALID,0,VALID,97.452,VALID,-0.0679233,VALID,18.2157,VALID,199,VALID,0.57832,
1999-08-14, 01:27:00,VALID,0,VALID,97.2587,VALID,-0.0849042,VALID,18.2413,VALID,198,VALID,0.439823,
1999-08-14, 01:28:00,VALID,0,VALID,97.1328,VALID,-0.0509425,VALID,18.2477,VALID,198,VALID,0.462204,
1999-08-14, 01:29:00,VALID,0,VALID,97.1887,VALID,-0.0679233,VALID,18.274,VALID,205,VALID,0.461739,
1999-08-14, 01:30:00,VALID,0,VALID,97.1353,VALID,-0.0849042,VALID,18.2768,VALID,216,VALID,0.417101,
1999-08-14, 01:31:00,VALID,0,VALID,97.1252,VALID,-0.0849042,VALID,18.2833,VALID,219,VALID,0.542668,
1999-08-14, 01:32:00,VALID,0,VALID,97.2345,VALID,-0.0849042,VALID,18.3031,VALID,231,VALID,0.33826,
1999-08-14, 01:33:00,VALID,0,VALID,97.1697,VALID,-0.0679233,VALID,18.3414,VALID,230,VALID,0.620566,
1999-08-14, 01:34:00,VALID,0,VALID,97.0056,VALID,-0.101885,VALID,18.3703,VALID,234,VALID,0.603966,
1999-08-14, 01:35:00,VALID,0,VALID,96.8492,VALID,-0.0849042,VALID,18.416,VALID,223,VALID,0.496711,
1999-08-14, 01:36:00,VALID,0,VALID,96.7577,VALID,-0.0849042,VALID,18.4416,VALID,212,VALID,0.445747,
1999-08-14, 01:37:00,VALID,0,VALID,96.614,VALID,-0.0679233,VALID,18.4543,VALID,211,VALID,0.511102,
1999-08-14, 01:38:00,VALID,0,VALID,96.4665,VALID,-0.0849042,VALID,18.4545,VALID,217,VALID,0.816189,
1999-08-14, 01:39:00,VALID,0,VALID,96.4512,VALID,-0.0849042,VALID,18.4384,VALID,215,VALID,0.980755,
1999-08-14, 01:40:00,VALID,0,VALID,96.5351,VALID,-0.0849042,VALID,18.4162,VALID,213,VALID,1.15951,
1999-08-14, 01:41:00,VALID,0,VALID,96.6839,VALID,-0.101885,VALID,18.3938,VALID,211,VALID,0.917188,
1999-08-14, 01:42:00,VALID,0,VALID,96.82,VALID,-0.101885,VALID,18.3576,VALID,217,VALID,0.708404,
1999-08-14, 01:43:00,VALID,0,VALID,96.8696,VALID,-0.0679233,VALID,18.3514,VALID,207,VALID,0.738064,
1999-08-14, 01:44:00,VALID,0,VALID,96.8378,VALID,-0.0849042,VALID,18.3546,VALID,198,VALID,0.825977,
1999-08-14, 01:45:00,VALID,0,VALID,96.82,VALID,-0.101885,VALID,18.371,VALID,193,VALID,0.739746,
1999-08-14, 01:46:00,VALID,0,VALID,96.8085,VALID,-0.0679233,VALID,18.3802,VALID,189,VALID,0.613582,
1999-08-14, 01:47:00,VALID,0,VALID,96.7602,VALID,-0.0849042,VALID,18.3966,VALID,157,VALID,0.657072,
1999-08-14, 01:48:00,VALID,0,VALID,96.7577,VALID,-0.101885,VALID,18.4063,VALID,177,VALID,0.430099,
1999-08-14, 01:49:00,VALID,0,VALID,96.8149,VALID,-0.0679233,VALID,18.3897,VALID,173,VALID,0.134924,
1999-08-14, 01:50:00,VALID,0,VALID,96.8212,VALID,0.0169808,VALID,18.3952,VALID,173,VALID,0.349662,
1999-08-14, 01:51:00,VALID,0,VALID,96.8111,VALID,0.0169808,VALID,18.3825,VALID,161,VALID,0.687027,
1999-08-14, 01:52:00,VALID,0,VALID,96.8416,VALID,0.0169808,VALID,18.3597,VALID,154,VALID,0.798725,
1999-08-14, 01:53:00,VALID,0,VALID,96.9573,VALID,0.0339617,VALID,18.3304,VALID,157,VALID,0.97759,
1999-08-14, 01:54:00,VALID,0,VALID,97.0934,VALID,0,VALID,18.311,VALID,168,VALID,0.940456,
1999-08-14, 01:55:00,VALID,0,VALID,97.1684,VALID,0,VALID,18.2948,VALID,176,VALID,1.09421,
1999-08-14, 01:56:00,VALID,0,VALID,97.1124,VALID,0.0509425,VALID,18.301,VALID,190,VALID,1.48418,
1999-08-14, 01:57:00,VALID,0,VALID,96.9789,VALID,0.0509425,VALID,18.3234,VALID,188,VALID,1.32792,
1999-08-14, 01:58:00,VALID,0,VALID,96.8785,VALID,0,VALID,18.343,VALID,189,VALID,1.49958,
1999-08-14, 01:59:00,VALID,0,VALID,96.8098,VALID,0.0169808,VALID,18.3657,VALID,192,VALID,1.53555,
1999-08-14, 02:00:00,VALID,0,VALID,96.8441,VALID,0.0169808,VALID,18.379,VALID,196,VALID,1.38411,
1999-08-14, 02:01:00,VALID,0,VALID,96.9115,VALID,0.0679233,VALID,18.3654,VALID,193,VALID,0.888622,
1999-08-14, 02:02:00,VALID,0,VALID,96.9637,VALID,0.0339617,VALID,18.359,VALID,189,VALID,1.29223,
1999-08-14, 02:03:00,VALID,0,VALID,97.0171,VALID,0.0509425,VALID,18.353,VALID,193,VALID,1.23379,
1999-08-14, 02:04:00,VALID,0,VALID,97.0819,VALID,0.0169808,VALID,18.3336,VALID,190,VALID,1.6786,
1999-08-14, 02:05:00,VALID,0,VALID,97.1582,VALID,-0.0679233,VALID,18.3244,VALID,200,VALID,1.37829,
1999-08-14, 02:06:00,VALID,0,VALID,97.1976,VALID,0,VALID,18.338,VALID,194,VALID,1.5183,
1999-08-14, 02:07:00,VALID,0,VALID,97.1786,VALID,-0.101885,VALID,18.3315,VALID,190,VALID,1.44575,
1999-08-14, 02:08:00,VALID,0,VALID,97.1824,VALID,-0.0849042,VALID,18.3248,VALID,191,VALID,1.3353,
1999-08-14, 02:09:00,VALID,0,VALID,97.1836,VALID,-0.0509425,VALID,18.332,VALID,194,VALID,1.71012,
1999-08-14, 02:10:00,VALID,0,VALID,97.1722,VALID,-0.0849042,VALID,18.3253,VALID,195,VALID,1.71473,
1999-08-14, 02:11:00,VALID,0,VALID,97.1964,VALID,-0.0339617,VALID,18.3317,VALID,191,VALID,1.50645,
1999-08-14, 02:12:01,VALID,0,VALID,97.1862,VALID,-0.0509425,VALID,18.338,VALID,190,VALID,1.70291,
1999-08-14, 02:13:00,VALID,0,VALID,97.1646,VALID,-0.0509425,VALID,18.3382,VALID,192,VALID,1.4867,
1999-08-14, 02:14:00,VALID,0,VALID,97.129,VALID,-0.0679233,VALID,18.3414,VALID,196,VALID,1.47196,
1999-08-14, 02:15:00,VALID,0,VALID,97.1188,VALID,-0.0849042,VALID,18.3412,VALID,202,VALID,1.3444,
1999-08-14, 02:16:00,VALID,0,VALID,97.1035,VALID,-0.0849042,VALID,18.3407,VALID,200,VALID,1.17288,
1999-08-14, 02:17:00,VALID,0,VALID,97.0883,VALID,-0.0339617,VALID,18.3412,VALID,196,VALID,1.22424,
1999-08-14, 02:18:00,VALID,0,VALID,97.1099,VALID,-0.0849042,VALID,18.3509,VALID,210,VALID,0.844172,
1999-08-14, 02:19:00,VALID,0,VALID,97.0984,VALID,-0.0679233,VALID,18.3638,VALID,199,VALID,0.797877,
1999-08-14, 02:20:00,VALID,0,VALID,97.0578,VALID,0.0169808,VALID,18.3627,VALID,205,VALID,1.1028,
1999-08-14, 02:21:00,VALID,0,VALID,97.0361,VALID,0,VALID,18.3689,VALID,202,VALID,0.942925,
1999-08-14, 02:22:00,VALID,0,VALID,96.9675,VALID,0.0339617,VALID,18.385,VALID,201,VALID,1.03721,
1999-08-14, 02:23:00,VALID,0,VALID,96.9179,VALID,0.0169808,VALID,18.4049,VALID,195,VALID,0.776693,
1999-08-14, 02:24:00,VALID,0,VALID,96.8403,VALID,-0.0169808,VALID,18.4047,VALID,193,VALID,0.990663,
1999-08-14, 02:25:00,VALID,0,VALID,96.7869,VALID,0,VALID,18.424,VALID,189,VALID,0.43316,
1999-08-14, 02:26:00,VALID,0,VALID,96.7373,VALID,0.0169808,VALID,18.4402,VALID,193,VALID,0.382617,
1999-08-14, 02:27:00,VALID,0,VALID,96.7119,VALID,0,VALID,18.4531,VALID,177,VALID,0.00717905,
1999-08-14, 02:28:00,VALID,0,VALID,96.6381,VALID,0.0169808,VALID,18.4568,VALID,193,VALID,0.329427,
1999-08-14, 02:29:00,VALID,0,VALID,96.6178,VALID,0,VALID,18.4566,VALID,197,VALID,0.322461,
1999-08-14, 02:30:00,VALID,0,VALID,96.6521,VALID,0,VALID,18.4561,VALID,187,VALID,0.516846,
1999-08-14, 02:31:00,VALID,0,VALID,96.6737,VALID,0,VALID,18.4566,VALID,179,VALID,0.592147,
1999-08-14, 02:32:00,VALID,0,VALID,96.6915,VALID,0.0169808,VALID,18.44,VALID,184,VALID,0.628289,
1999-08-14, 02:33:00,VALID,0,VALID,96.778,VALID,0,VALID,18.4337,VALID,204,VALID,0.757196,
1999-08-14, 02:34:00,VALID,0,VALID,96.7551,VALID,0,VALID,18.4141,VALID,208,VALID,0.967905,
1999-08-14, 02:35:00,VALID,0,VALID,96.6598,VALID,-0.0169808,VALID,18.4178,VALID,203,VALID,0.914696,
1999-08-14, 02:36:00,VALID,0,VALID,96.5466,VALID,-0.0169808,VALID,18.4402,VALID,204,VALID,0.803267,
1999-08-14, 02:37:00,VALID,0,VALID,96.3724,VALID,0.0169808,VALID,18.4494,VALID,206,VALID,0.690378,
1999-08-14, 02:38:00,VALID,0,VALID,96.2503,VALID,0,VALID,18.4852,VALID,207,VALID,0.665502,
1999-08-14, 02:39:00,VALID,0,VALID,96.2745,VALID,0,VALID,18.5018,VALID,202,VALID,0.420819,
1999-08-14, 02:40:00,VALID,0,VALID,96.216,VALID,-0.0169808,VALID,18.5085,VALID,205,VALID,0.482537,
1999-08-14, 02:41:00,VALID,0,VALID,96.2655,VALID,0,VALID,18.5113,VALID,205,VALID,0.286523,
1999-08-14, 02:42:00,VALID,0,VALID,96.0646,VALID,-0.0509425,VALID,18.5184,VALID,203,VALID,0.551809,
1999-08-14, 02:43:00,VALID,0,VALID,96.0265,VALID,-0.0169808,VALID,18.5147,VALID,200,VALID,0.220861,
1999-08-14, 02:44:00,VALID,0,VALID,96.1231,VALID,0,VALID,18.5341,VALID,200,VALID,0.0791016,
1999-08-14, 02:45:00,VALID,0,VALID,96.1562,VALID,0,VALID,18.5507,VALID,201,VALID,0.0273438,
1999-08-14, 02:46:00,VALID,0,VALID,96.1091,VALID,0,VALID,18.5507,VALID,210,VALID,0.395433,
1999-08-14, 02:47:00,VALID,0,VALID,96.202,VALID,-0.0169808,VALID,18.5436,VALID,205,VALID,0.313556,
1999-08-14, 02:48:00,VALID,0,VALID,96.2859,VALID,0,VALID,18.5367,VALID,208,VALID,0.627344,
1999-08-14, 02:49:00,VALID,0,VALID,96.394,VALID,-0.0169808,VALID,18.5376,VALID,212,VALID,1.00282,
1999-08-14, 02:50:00,VALID,0,VALID,96.3686,VALID,-0.101885,VALID,18.4958,VALID,207,VALID,1.03721,
1999-08-14, 02:51:00,VALID,0,VALID,96.1422,VALID,-0.118866,VALID,18.4737,VALID,214,VALID,0.90067,
1999-08-14, 02:52:00,VALID,0,VALID,95.8141,VALID,-0.101885,VALID,18.503,VALID,221,VALID,0.795139,
1999-08-14, 02:53:00,VALID,0,VALID,95.6259,VALID,-0.101885,VALID,18.5388,VALID,220,VALID,0.860642,
1999-08-14, 02:54:00,VALID,0,VALID,95.4924,VALID,-0.0849042,VALID,18.5771,VALID,220,VALID,0.859992,
1999-08-14, 02:55:00,VALID,0,VALID,95.3055,VALID,-0.101885,VALID,18.5962,VALID,223,VALID,0.961607,
1999-08-14, 02:56:00,VALID,0,VALID,95.1491,VALID,-0.101885,VALID,18.6191,VALID,227,VALID,0.923633,
1999-08-14, 02:57:00,VALID,0,VALID,95.0448,VALID,-0.0679233,VALID,18.6382,VALID,231,VALID,1.04455,
1999-08-14, 02:58:00,VALID,0,VALID,95.0207,VALID,-0.101885,VALID,18.6578,VALID,228,VALID,0.956715,
1999-08-14, 02:59:00,VALID,0,VALID,95.0524,VALID,-0.0849042,VALID,18.6507,VALID,220,VALID,1.10176,
1999-08-14, 03:00:00,VALID,0,VALID,95.1033,VALID,-0.0849042,VALID,18.6481,VALID,227,VALID,0.692491,
1999-08-14, 03:01:00,VALID,0,VALID,95.3029,VALID,-0.101885,VALID,18.6385,VALID,211,VALID,0.541266,
1999-08-14, 03:02:00,VALID,0,VALID,95.3792,VALID,-0.118866,VALID,18.6223,VALID,229,VALID,0.329392,
1999-08-14, 03:03:00,VALID,0,VALID,95.4276,VALID,-0.101885,VALID,18.6158,VALID,201,VALID,0.536951,
1999-08-14, 03:04:00,VALID,0,VALID,95.5242,VALID,-0.0849042,VALID,18.6124,VALID,192,VALID,0.538261,
1999-08-14, 03:05:00,VALID,0,VALID,95.6196,VALID,0.0169808,VALID,18.595,VALID,191,VALID,0.716283,
1999-08-14, 03:06:01,VALID,0,VALID,95.7747,VALID,0.0339617,VALID,18.5752,VALID,171,VALID,0.821398,
1999-08-14, 03:07:01,VALID,0,VALID,96.0214,VALID,0.0339617,VALID,18.5332,VALID,162,VALID,0.754523,
1999-08-14, 03:08:00,VALID,0,VALID,96.1664,VALID,0,VALID,18.4947,VALID,162,VALID,0.774523,
1999-08-14, 03:09:00,VALID,0,VALID,96.2872,VALID,0.0509425,VALID,18.4621,VALID,162,VALID,0.827934,
1999-08-14, 03:10:00,VALID,0,VALID,96.3838,VALID,0.0339617,VALID,18.4464,VALID,163,VALID,0.886936,
1999-08-14, 03:11:00,VALID,0,VALID,96.4627,VALID,0.0169808,VALID,18.4268,VALID,177,VALID,0.718164,
1999-08-14, 03:12:00,VALID,0,VALID,96.5148,VALID,0.0169808,VALID,18.427,VALID,175,VALID,0.76647,
1999-08-14, 03:13:00,VALID,0,VALID,96.4715,VALID,0,VALID,18.4104,VALID,175,VALID,0.804688,
1999-08-14, 03:14:00,VALID,0,VALID,96.4054,VALID,0,VALID,18.4365,VALID,182,VALID,0.73418,
1999-08-14, 03:15:00,VALID,0,VALID,96.3101,VALID,0.0169808,VALID,18.4527,VALID,191,VALID,0.779053,
1999-08-14, 03:16:00,VALID,0,VALID,96.235,VALID,0.0509425,VALID,18.4753,VALID,201,VALID,0.764423,
1999-08-14, 03:17:00,VALID,0,VALID,96.113,VALID,0.0509425,VALID,18.4947,VALID,187,VALID,0.77611,
1999-08-14, 03:18:00,VALID,0,VALID,96.1511,VALID,0.0169808,VALID,18.5143,VALID,167,VALID,0.631168,
1999-08-14, 03:19:00,VALID,0,VALID,96.2172,VALID,0,VALID,18.5046,VALID,156,VALID,0.731208,
1999-08-14, 03:20:00,VALID,0,VALID,96.2808,VALID,-0.0509425,VALID,18.4824,VALID,161,VALID,0.672297,
1999-08-14, 03:21:00,VALID,0,VALID,96.4385,VALID,-0.0339617,VALID,18.473,VALID,153,VALID,0.588778,
1999-08-14, 03:22:00,VALID,0,VALID,96.5161,VALID,0,VALID,18.4667,VALID,146,VALID,0.594367,
1999-08-14, 03:23:00,VALID,0,VALID,96.5262,VALID,0,VALID,18.4439,VALID,149,VALID,0.307771,
1999-08-14, 03:24:00,VALID,0,VALID,96.6381,VALID,-0.0339617,VALID,18.4504,VALID,146,VALID,0.123733,
1999-08-14, 03:25:00,VALID,0,VALID,96.6839,VALID,-0.0169808,VALID,18.4273,VALID,149,VALID,0,
1999-08-14, 03:26:00,VALID,0,VALID,96.7399,VALID,-0.0509425,VALID,18.4314,VALID,160,VALID,0,
1999-08-14, 03:27:00,VALID,0,VALID,96.717,VALID,-0.0509425,VALID,18.4084,VALID,181,VALID,0.281661,
1999-08-14, 03:28:00,VALID,0,VALID,96.7755,VALID,-0.0509425,VALID,18.4051,VALID,187,VALID,0.530405,
1999-08-14, 03:29:01,VALID,0,VALID,96.8429,VALID,-0.101885,VALID,18.3987,VALID,193,VALID,0.519336,
1999-08-14, 03:30:00,VALID,0,VALID,96.8467,VALID,-0.0339617,VALID,18.3989,VALID,206,VALID,0.486979,
1999-08-14, 03:31:00,VALID,0,VALID,96.8365,VALID,-0.0509425,VALID,18.379,VALID,199,VALID,0.642428,
1999-08-14, 03:32:00,VALID,0,VALID,96.7488,VALID,-0.0339617,VALID,18.4051,VALID,203,VALID,0.573269,
1999-08-14, 03:33:00,VALID,0,VALID,96.6241,VALID,-0.0679233,VALID,18.4245,VALID,218,VALID,0.52168,
1999-08-14, 03:34:00,VALID,0,VALID,96.5135,VALID,-0.0339617,VALID,18.4501,VALID,200,VALID,0.52474,
1999-08-14, 03:35:00,VALID,0,VALID,96.3851,VALID,0.0339617,VALID,18.4621,VALID,196,VALID,0.315995,
1999-08-14, 03:36:00,VALID,0,VALID,96.3787,VALID,0.0679233,VALID,18.4815,VALID,196,VALID,0.0100446,
1999-08-14, 03:37:00,VALID,0,VALID,96.4461,VALID,0.0169808,VALID,18.4817,VALID,196,VALID,0,
1999-08-14, 03:38:00,VALID,0,VALID,96.4525,VALID,0.0509425,VALID,18.4718,VALID,196,VALID,0,
1999-08-14, 03:39:00,VALID,0,VALID,96.4512,VALID,0.0169808,VALID,18.4494,VALID,187,VALID,0,
1999-08-14, 03:40:00,VALID,0,VALID,96.5389,VALID,0.0339617,VALID,18.4296,VALID,171,VALID,0.593527,
1999-08-14, 03:41:00,VALID,0,VALID,96.633,VALID,0.101885,VALID,18.4164,VALID,163,VALID,0.731445,
1999-08-14, 03:42:00,VALID,0,VALID,96.703,VALID,0.0339617,VALID,18.3876,VALID,150,VALID,0.834037,
1999-08-14, 03:43:00,VALID,0,VALID,96.8149,VALID,0.0849042,VALID,18.3652,VALID,149,VALID,0.99451,
1999-08-14, 03:44:00,VALID,0,VALID,96.8149,VALID,0.0509425,VALID,18.3687,VALID,147,VALID,0.955929,
1999-08-14, 03:45:00,VALID,0,VALID,96.6737,VALID,0.0339617,VALID,18.3873,VALID,150,VALID,0.896918,
1999-08-14, 03:46:00,VALID,0,VALID,96.525,VALID,0.0509425,VALID,18.4293,VALID,155,VALID,0.761418,
1999-08-14, 03:47:00,VALID,0,VALID,96.4003,VALID,0.0849042,VALID,18.4649,VALID,167,VALID,0.848818,
1999-08-14, 03:48:00,VALID,0,VALID,96.2299,VALID,0.0679233,VALID,18.4974,VALID,178,VALID,1.06524,
1999-08-14, 03:49:00,VALID,0,VALID,96.1473,VALID,0.0169808,VALID,18.5362,VALID,207,VALID,0.623998,
1999-08-14, 03:50:00,VALID,0,VALID,96.1664,VALID,0.0509425,VALID,18.5362,VALID,217,VALID,0.741365,
1999-08-14, 03:51:01,VALID,0,VALID,96.043,VALID,0.0339617,VALID,18.5429,VALID,223,VALID,0.611545,
1999-08-14, 03:52:00,VALID,0,VALID,95.8078,VALID,0.0169808,VALID,18.5493,VALID,210,VALID,0.97759,
1999-08-14, 03:53:00,VALID,0,VALID,95.5725,VALID,0.0509425,VALID,18.5687,VALID,203,VALID,0.686632,
1999-08-14, 03:54:00,VALID,0,VALID,95.5217,VALID,0.0509425,VALID,18.6075,VALID,198,VALID,0.392531,
1999-08-14, 03:55:00,VALID,0,VALID,95.5789,VALID,0.0679233,VALID,18.6137,VALID,196,VALID,0.252604,
1999-08-14, 03:56:00,VALID,0,VALID,95.5852,VALID,0.0509425,VALID,18.6105,VALID,196,VALID,0.586523,
1999-08-14, 03:57:00,VALID,0,VALID,95.6628,VALID,0.0849042,VALID,18.5911,VALID,182,VALID,0.721495,
1999-08-14, 03:58:00,VALID,0,VALID,95.8892,VALID,0.101885,VALID,18.5526,VALID,178,VALID,0.746745,
1999-08-14, 03:59:00,VALID,0,VALID,96.0392,VALID,0.0509425,VALID,18.5233,VALID,179,VALID,0.720898,
1999-08-14, 04:00:00,VALID,0,VALID,96.1473,VALID,0.0679233,VALID,18.5041,VALID,176,VALID,0.690186,
1999-08-14, 04:01:00,VALID,0,VALID,96.1867,VALID,0.0339617,VALID,18.4977,VALID,179,VALID,0.569712,
1999-08-14, 04:02:01,VALID,0,VALID,96.1969,VALID,0.0339617,VALID,18.4912,VALID,180,VALID,0.610403,
1999-08-14, 04:03:00,VALID,0,VALID,96.2617,VALID,0.0849042,VALID,18.4873,VALID,195,VALID,0.315995,
1999-08-14, 04:04:00,VALID,0,VALID,96.3724,VALID,0.0169808,VALID,18.4845,VALID,200,VALID,0.420819,
1999-08-14, 04:05:00,VALID,0,VALID,96.4245,VALID,-0.0849042,VALID,18.4732,VALID,202,VALID,0.569257,